• în România
  • Lista ţărilor
  • Pe 7 zile
  • Temperatura apei
  • Hartă satelitară
  • Meteo pe hartă
  • Widget-uri
  • user-avatar
    Intrare

    Meteo pe oră la Georgetown

    Astăzi, 18 August, Sâmbătă

    Timp Temperatura Precipitaţii Vânt Presiune Umiditate
    00:00 +26°C° 0,8 mm 3 m/s 761 mmHg 95%
    01:00 +26°C° 0,8 mm 3 m/s 761 mmHg 95%
    02:00 +25°C° 0 mm 3 m/s 761 mmHg 96%
    03:00 +25°C° 0,3 mm 3 m/s 761 mmHg 96%
    04:00 +25°C° 0,3 mm 3 m/s 761 mmHg 96%
    05:00 +25°C° 0,3 mm 3 m/s 761 mmHg 95%
    06:00 +26°C° 0,1 mm 3 m/s 761 mmHg 92%
    07:00 +28°C° 0,1 mm 3 m/s 761 mmHg 88%
    08:00 +29°C° 0,1 mm 3 m/s 761 mmHg 84%
    09:00 +30°C° 0,4 mm 3 m/s 761 mmHg 78%
    10:00 +31°C° 0,4 mm 3 m/s 761 mmHg 72%
    11:00 +34°C° 0,4 mm 3 m/s 761 mmHg 66%
    12:00 +34°C° 0,5 mm 3 m/s 760 mmHg 67%
    13:00 +34°C° 0,5 mm 3 m/s 760 mmHg 68%
    14:00 +34°C° 0,5 mm 4 m/s 759 mmHg 69%
    15:00 +33°C° 0,6 mm 4 m/s 759 mmHg 72%
    16:00 +32°C° 0,6 mm 4 m/s 759 mmHg 76%
    17:00 +30°C° 0,6 mm 4 m/s 758 mmHg 80%
    18:00 +29°C° 0,1 mm 4 m/s 759 mmHg 85%
    19:00 +28°C° 0,1 mm 4 m/s 759 mmHg 89%
    20:00 +27°C° 0,1 mm 3 m/s 760 mmHg 94%
    21:00 +26°C° 0,3 mm 4 m/s 760 mmHg 95%
    22:00 +26°C° 0,3 mm 4 m/s 760 mmHg 95%
    23:00 +26°C° 0,3 mm 4 m/s 760 mmHg 96%

    Mâine, 19 August, Duminică

    Timp Temperatura Precipitaţii Vânt Presiune Umiditate
    00:00 +26°C° 0,6 mm 4 m/s 760 mmHg 96%
    01:00 +26°C° 0,6 mm 3 m/s 760 mmHg 96%
    02:00 +26°C° 0,6 mm 3 m/s 759 mmHg 96%
    03:00 +26°C° 0,1 mm 3 m/s 759 mmHg 96%
    04:00 +26°C° 0,1 mm 3 m/s 759 mmHg 95%
    05:00 +26°C° 0,1 mm 3 m/s 760 mmHg 95%
    06:00 +27°C° 0,4 mm 3 m/s 760 mmHg 93%
    07:00 +27°C° 0,4 mm 3 m/s 760 mmHg 91%
    08:00 +28°C° 0,4 mm 4 m/s 761 mmHg 89%
    09:00 +30°C° 0,4 mm 4 m/s 761 mmHg 83%
    10:00 +32°C° 0,4 mm 4 m/s 761 mmHg 77%
    11:00 +33°C° 0,4 mm 4 m/s 761 mmHg 71%
    12:00 +33°C° 0,5 mm 4 m/s 761 mmHg 69%
    13:00 +34°C° 0,5 mm 4 m/s 760 mmHg 66%
    14:00 +34°C° 0,5 mm 4 m/s 759 mmHg 63%
    15:00 +33°C° 0 mm 4 m/s 759 mmHg 65%
    16:00 +32°C° 0 mm 4 m/s 759 mmHg 68%
    17:00 +30°C° 0 mm 4 m/s 759 mmHg 70%
    18:00 +29°C° 0,2 mm 3 m/s 759 mmHg 75%
    19:00 +28°C° 0,2 mm 3 m/s 760 mmHg 80%
    20:00 +27°C° 0,2 mm 3 m/s 760 mmHg 86%
    21:00 +27°C° 0,2 mm 3 m/s 761 mmHg 87%
    22:00 +27°C° 0,2 mm 3 m/s 761 mmHg 88%
    23:00 +27°C° 0,2 mm 3 m/s 761 mmHg 88%

    Poimâine, 20 August, Luni

    Timp Temperatura Precipitaţii Vânt Presiune Umiditate
    00:00 +26°C° 0,7 mm 3 m/s 761 mmHg 90%
    01:00 +26°C° 0,7 mm 3 m/s 760 mmHg 91%
    02:00 +26°C° 0,7 mm 3 m/s 760 mmHg 92%
    03:00 +26°C° 0,5 mm 3 m/s 759 mmHg 93%
    04:00 +26°C° 0,5 mm 3 m/s 759 mmHg 94%
    05:00 +25°C° 0,5 mm 3 m/s 759 mmHg 94%
    06:00 +26°C° 1 mm 3 m/s 760 mmHg 92%
    07:00 +27°C° 1 mm 3 m/s 761 mmHg 90%
    08:00 +28°C° 1 mm 3 m/s 761 mmHg 89%
    09:00 +29°C° 0,8 mm 3 m/s 761 mmHg 87%
    10:00 +30°C° 0,8 mm 3 m/s 761 mmHg 85%
    11:00 +32°C° 0,8 mm 4 m/s 761 mmHg 83%
    12:00 +32°C° 1 mm 4 m/s 761 mmHg 79%
    13:00 +33°C° 1 mm 4 m/s 760 mmHg 76%
    14:00 +33°C° 1 mm 4 m/s 759 mmHg 72%
    15:00 +33°C° 0,2 mm 4 m/s 759 mmHg 72%
    16:00 +32°C° 0,2 mm 4 m/s 759 mmHg 72%
    17:00 +30°C° 0,2 mm 4 m/s 759 mmHg 72%
    18:00 +29°C° 0 mm 4 m/s 759 mmHg 77%
    19:00 +28°C° 0 mm 4 m/s 760 mmHg 82%
    20:00 +27°C° 0 mm 4 m/s 760 mmHg 87%
    21:00 +27°C° 0,4 mm 3 m/s 760 mmHg 90%
    22:00 +27°C° 0,4 mm 3 m/s 761 mmHg 92%
    23:00 +26°C° 0,4 mm 3 m/s 761 mmHg 94%

    21 August, Marţi

    Timp Temperatura Precipitaţii Vânt Presiune Umiditate
    00:00 +26°C° 0,8 mm 3 m/s 760 mmHg 95%
    01:00 +26°C° 0,8 mm 3 m/s 760 mmHg 96%
    02:00 +26°C° 0,8 mm 3 m/s 759 mmHg 97%
    03:00 +26°C° 0,5 mm 3 m/s 760 mmHg 96%
    04:00 +25°C° 0,5 mm 3 m/s 760 mmHg 96%
    05:00 +25°C° 0,5 mm 3 m/s 760 mmHg 96%
    06:00 +26°C° 0,5 mm 3 m/s 761 mmHg 94%
    07:00 +27°C° 0,5 mm 3 m/s 761 mmHg 92%
    08:00 +28°C° 0,5 mm 3 m/s 762 mmHg 89%
    09:00 +29°C° 0,6 mm 3 m/s 762 mmHg 85%
    10:00 +30°C° 0,6 mm 3 m/s 762 mmHg 81%
    11:00 +32°C° 0,6 mm 4 m/s 762 mmHg 76%
    12:00 +33°C° 0,1 mm 4 m/s 761 mmHg 69%
    13:00 +34°C° 0,1 mm 4 m/s 760 mmHg 62%
    14:00 +35°C° 0,1 mm 4 m/s 759 mmHg 55%
    15:00 +34°C° 0 mm 4 m/s 759 mmHg 60%
    16:00 +33°C° 0 mm 4 m/s 759 mmHg 64%
    17:00 +32°C° 0 mm 4 m/s 759 mmHg 69%
    18:00 +29°C° 0 mm 3 m/s 759 mmHg 75%
    19:00 +28°C° 0 mm 3 m/s 760 mmHg 82%
    20:00 +27°C° 0 mm 3 m/s 760 mmHg 89%
    21:00 +27°C° 0,1 mm 3 m/s 760 mmHg 90%
    22:00 +27°C° 0,1 mm 3 m/s 760 mmHg 92%
    23:00 +26°C° 0,1 mm 3 m/s 761 mmHg 93%

    22 August, Miercuri

    Timp Temperatura Precipitaţii Vânt Presiune Umiditate
    00:00 +26°C° 0,4 mm 3 m/s 760 mmHg 94%
    01:00 +26°C° 0,4 mm 3 m/s 760 mmHg 95%
    02:00 +26°C° 0,4 mm 3 m/s 759 mmHg 96%
    03:00 +26°C° 0,4 mm 3 m/s 760 mmHg 96%
    04:00 +25°C° 0,4 mm 3 m/s 760 mmHg 96%
    05:00 +25°C° 0,4 mm 3 m/s 760 mmHg 96%
    06:00 +26°C° 0,2 mm 3 m/s 760 mmHg 93%
    07:00 +27°C° 0,2 mm 3 m/s 761 mmHg 90%
    08:00 +29°C° 0,2 mm 3 m/s 761 mmHg 86%
    09:00 +30°C° 0,2 mm 3 m/s 761 mmHg 79%
    10:00 +31°C° 0,2 mm 3 m/s 761 mmHg 72%
    11:00 +33°C° 0,2 mm 3 m/s 761 mmHg 65%
    12:00 +34°C° 0,1 mm 3 m/s 760 mmHg 62%
    13:00 +34°C° 0,1 mm 3 m/s 759 mmHg 59%
    14:00 +35°C° 0,1 mm 4 m/s 759 mmHg 56%
    15:00 +34°C° 0 mm 4 m/s 758 mmHg 60%
    16:00 +33°C° 0 mm 4 m/s 758 mmHg 64%
    17:00 +32°C° 0 mm 4 m/s 758 mmHg 68%
    18:00 +30°C° 0,2 mm 4 m/s 759 mmHg 76%
    19:00 +28°C° 0,2 mm 4 m/s 759 mmHg 84%
    20:00 +27°C° 0,2 mm 3 m/s 759 mmHg 92%
    21:00 +26°C° 0,5 mm 4 m/s 760 mmHg 93%
    22:00 +26°C° 0,5 mm 4 m/s 760 mmHg 95%
    23:00 +26°C° 0,5 mm 4 m/s 760 mmHg 96%

    23 August, Joi

    Timp Temperatura Precipitaţii Vânt Presiune Umiditate
    00:00 +26°C° 0 mm 4 m/s 760 mmHg 96%
    01:00 +26°C° 0 mm 3 m/s 759 mmHg 95%
    02:00 +26°C° 0 mm 3 m/s 759 mmHg 95%
    03:00 +26°C° 0,5 mm 3 m/s 759 mmHg 95%
    04:00 +25°C° 0,5 mm 3 m/s 759 mmHg 96%
    05:00 +25°C° 0,5 mm 3 m/s 759 mmHg 96%
    06:00 +26°C° 0,7 mm 3 m/s 760 mmHg 93%
    07:00 +28°C° 0,7 mm 2 m/s 760 mmHg 90%
    08:00 +29°C° 0,7 mm 2 m/s 761 mmHg 87%
    09:00 +30°C° 0,3 mm 2 m/s 761 mmHg 78%
    10:00 +31°C° 0,3 mm 2 m/s 761 mmHg 70%
    11:00 +34°C° 0,3 mm 3 m/s 761 mmHg 61%
    12:00 +34°C° 0,2 mm 3 m/s 760 mmHg 61%
    13:00 +34°C° 0,2 mm 3 m/s 759 mmHg 60%
    14:00 +34°C° 0,2 mm 3 m/s 758 mmHg 60%
    15:00 +33°C° 0,1 mm 3 m/s 758 mmHg 62%
    16:00 +33°C° 0,1 mm 3 m/s 758 mmHg 64%
    17:00 +31°C° 0,1 mm 3 m/s 758 mmHg 66%
    18:00 +29°C° 0 mm 3 m/s 758 mmHg 72%
    19:00 +28°C° 0 mm 3 m/s 758 mmHg 79%
    20:00 +27°C° 0 mm 3 m/s 759 mmHg 86%
    21:00 +26°C° 0 mm 3 m/s 759 mmHg 87%
    22:00 +26°C° 0 mm 3 m/s 759 mmHg 88%
    23:00 +26°C° 0 mm 3 m/s 759 mmHg 90%
    Arată mai mult